WXM80 ListenWXM80 Stop

You find our weather info also at:

UK Metoffice

WeatherCloud

Weather Underground

Northeastern Weather Network

AWEKAS

Citizen Weather Observer Program (CWOP)

HAMweather, WeatherForYou, PWS Weather


Weather Underground History page Text

Daily Summary for September 8, 2017 Units:  English    Metric   Both
« Previous Day
Next Day »
Daily Weekly Monthly Yearly Custom
  High: Low: Average:
Temperature: TemperatureF °F 56.3 °F 65.7 °F
Dew Point: DewpointF °F 51.8 °F 54.1 °F
Humidity: Humidity % 46 % 67 %
Wind Speed: WindSpeedMPH mph 0.0 mph 2.2 mph
Wind Gust: WindSpeedGustMPH mph - -
Wind:- - WSW
Pressure: PressureIn in 29.95 in -
Precipitation: 0.00 in    
Historical Graphs
 
 
Tabular Data for September 8, 2017
Time Temperature Dew Point Pressure Wind Wind Speed Wind Gust Humidity Rainfall Rate (Hourly)
TemperatureF °F DewpointF °F PressureIn in Calm     Humidity % HourlyPrecipIn in
00:00 61.7 °F 53.3 °F 29.95 in Calm   2.3 mph 74 % 0.00 in
00:05 61.6 °F 53.2 °F 29.95 in Calm   1.2 mph 74 % 0.00 in
00:10 61.5 °F 53.1 °F 29.96 in SSW 0.7 mph 3.5 mph 74 % 0.00 in
00:15 61.4 °F 52.7 °F 29.96 in SSW 2.1 mph 3.5 mph 73 % 0.00 in
00:18 61.4 °F 52.7 °F 29.96 in West 0.3 mph 4.6 mph 73 % 0.00 in
00:23 61.4 °F 52.7 °F 29.96 in WSW 0.9 mph 3.5 mph 73 % 0.00 in
00:28 61.3 °F 52.6 °F 29.96 in WSW 0.1 mph 2.3 mph 73 % 0.00 in
00:33 61.3 °F 52.9 °F 29.96 in SW 2.3 mph 5.0 mph 74 % 0.00 in
00:38 61.3 °F 52.9 °F 29.96 in SW 2.6 mph 3.5 mph 74 % 0.00 in
00:43 61.4 °F 53.0 °F 29.97 in SW 2.7 mph 5.8 mph 74 % 0.00 in
00:48 61.5 °F 53.1 °F 29.97 in WSW 2.9 mph 5.0 mph 74 % 0.00 in
00:53 61.7 °F 53.0 °F 29.97 in WSW 3.5 mph 5.0 mph 73 % 0.00 in
00:58 61.9 °F 53.1 °F 29.97 in WSW 2.1 mph 6.0 mph 73 % 0.00 in
01:03 62.0 °F 53.2 °F 29.97 in WSW 1.1 mph 5.0 mph 73 % 0.00 in
01:08 62.1 °F 53.0 °F 29.97 in SW 0.3 mph 4.6 mph 72 % 0.00 in
01:13 62.2 °F 53.1 °F 29.97 in WSW 0.9 mph 3.5 mph 72 % 0.00 in
01:18 62.2 °F 53.1 °F 29.97 in WSW 1.0 mph 2.3 mph 72 % 0.00 in
01:23 62.2 °F 53.1 °F 29.97 in WSW 1.6 mph 3.5 mph 72 % 0.00 in
01:28 62.1 °F 53.0 °F 29.97 in SW 0.2 mph 3.5 mph 72 % 0.00 in
01:33 62.0 °F 53.2 °F 29.97 in WSW 1.0 mph 4.0 mph 73 % 0.00 in
01:38 62.0 °F 53.2 °F 29.97 in WNW 0.5 mph 2.0 mph 73 % 0.00 in
01:43 61.9 °F 53.1 °F 29.97 in SW 1.7 mph 3.5 mph 73 % 0.00 in
01:48 61.8 °F 53.4 °F 29.97 in WSW 0.4 mph 4.6 mph 74 % 0.00 in
01:53 61.7 °F 53.3 °F 29.97 in Calm   1.2 mph 74 % 0.00 in
01:58 61.6 °F 53.2 °F 29.97 in WSW 0.2 mph 2.3 mph 74 % 0.00 in
02:03 61.5 °F 53.1 °F 29.97 in West 2.0 mph 2.3 mph 74 % 0.00 in
02:08 61.3 °F 52.9 °F 29.97 in WSW 1.0 mph 1.2 mph 74 % 0.00 in
02:13 61.3 °F 53.3 °F 29.97 in Calm   1.2 mph 75 % 0.00 in
02:18 61.3 °F 53.3 °F 29.97 in WSW 0.3 mph 3.0 mph 75 % 0.00 in
02:23 61.2 °F 53.2 °F 29.98 in Calm     75 % 0.00 in
02:28 61.1 °F 53.1 °F 29.98 in WSW 1.3 mph 2.3 mph 75 % 0.00 in
02:34 60.9 °F 52.9 °F 29.98 in WSW 1.3 mph 2.3 mph 75 % 0.00 in
02:38 60.8 °F 52.8 °F 29.98 in Calm     75 % 0.00 in
02:44 60.7 °F 52.7 °F 29.98 in SW 0.2 mph 2.3 mph 75 % 0.00 in
02:49 60.4 °F 52.4 °F 29.98 in WSW 0.2 mph 3.5 mph 75 % 0.00 in
02:54 60.3 °F 52.3 °F 29.98 in WSW 0.5 mph 2.3 mph 75 % 0.00 in
02:59 60.1 °F 52.1 °F 29.99 in SW 0.1 mph 1.2 mph 75 % 0.00 in
03:04 59.9 °F 52.0 °F 29.98 in Calm   2.3 mph 75 % 0.00 in
03:09 59.8 °F 52.2 °F 29.98 in SW 0.4 mph 2.3 mph 76 % 0.00 in
03:10 59.8 °F 52.2 °F 29.98 in SW 1.1 mph 3.0 mph 76 % 0.00 in
03:15 59.6 °F 52.0 °F 29.98 in Calm   1.2 mph 76 % 0.00 in
03:20 59.5 °F 51.9 °F 29.99 in SW 0.5 mph 2.3 mph 76 % 0.00 in
03:25 59.4 °F 52.2 °F 29.98 in SW 0.3 mph 2.0 mph 77 % 0.00 in
03:30 59.2 °F 52.0 °F 29.99 in SW 0.5 mph 2.3 mph 77 % 0.00 in
03:35 59.1 °F 51.9 °F 29.99 in SW 0.2 mph 1.2 mph 77 % 0.00 in
03:40 59.0 °F 51.8 °F 29.99 in WSW 0.4 mph 3.5 mph 77 % 0.00 in
03:45 58.9 °F 52.1 °F 29.99 in WSW 0.2 mph 1.2 mph 78 % 0.00 in
03:50 58.7 °F 51.9 °F 29.99 in SW 1.4 mph 4.0 mph 78 % 0.00 in
03:55 58.7 °F 52.2 °F 29.99 in WSW 1.6 mph 3.5 mph 79 % 0.00 in
04:00 58.6 °F 52.1 °F 29.99 in SW 0.5 mph 2.3 mph 79 % 0.00 in
04:05 58.5 °F 52.0 °F 29.99 in West 0.9 mph 3.5 mph 79 % 0.00 in
04:10 58.4 °F 51.9 °F 29.99 in WSW 1.7 mph 3.5 mph 79 % 0.00 in
04:15 58.4 °F 51.9 °F 29.99 in WSW 0.2 mph 2.3 mph 79 % 0.00 in
04:20 58.3 °F 52.2 °F 29.99 in SW 0.4 mph 2.3 mph 80 % 0.00 in
04:25 58.3 °F 52.5 °F 29.99 in SW 0.1 mph 1.2 mph 81 % 0.00 in
04:30 58.2 °F 52.4 °F 29.99 in SW 0.7 mph 2.3 mph 81 % 0.00 in
04:35 58.2 °F 52.7 °F 29.99 in WSW 1.6 mph 4.0 mph 82 % 0.00 in
04:40 58.1 °F 52.6 °F 29.99 in WSW 0.8 mph 3.5 mph 82 % 0.00 in
04:45 58.0 °F 52.2 °F 29.99 in WSW 0.5 mph 1.2 mph 81 % 0.00 in
04:50 57.9 °F 52.4 °F 29.99 in WSW 1.1 mph 3.0 mph 82 % 0.00 in
04:55 57.8 °F 52.3 °F 29.99 in WSW 0.7 mph 3.5 mph 82 % 0.00 in
04:56 57.7 °F 52.2 °F 29.99 in SW 1.7 mph 4.6 mph 82 % 0.00 in
05:01 57.7 °F 52.2 °F 29.99 in SSW 0.3 mph 1.2 mph 82 % 0.00 in
05:06 57.6 °F 52.1 °F 30.00 in SW 0.5 mph 2.3 mph 82 % 0.00 in
05:07 57.6 °F 52.1 °F 30.00 in Calm   1.2 mph 82 % 0.00 in
05:12 57.5 °F 52.0 °F 30.00 in WSW 0.2 mph 3.5 mph 82 % 0.00 in
05:17 57.5 °F 52.4 °F 30.00 in WSW 0.2 mph 2.3 mph 83 % 0.00 in
05:22 57.4 °F 52.3 °F 30.00 in SW 1.8 mph 4.0 mph 83 % 0.00 in
05:27 57.4 °F 52.3 °F 30.00 in SW 1.3 mph 4.6 mph 83 % 0.00 in
05:32 57.3 °F 52.2 °F 30.00 in SW 1.3 mph 2.3 mph 83 % 0.00 in
05:37 57.3 °F 52.2 °F 30.00 in SW 0.4 mph 1.2 mph 83 % 0.00 in
05:42 57.2 °F 52.1 °F 30.00 in SW 0.2 mph 3.5 mph 83 % 0.00 in
05:47 57.2 °F 52.4 °F 30.01 in SW 0.1 mph 2.3 mph 84 % 0.00 in
05:52 57.2 °F 52.4 °F 30.01 in SW 1.0 mph 3.0 mph 84 % 0.00 in
05:57 57.1 °F 52.3 °F 30.01 in WSW 1.5 mph 3.5 mph 84 % 0.00 in
06:02 57.1 °F 52.3 °F 30.01 in Calm   1.2 mph 84 % 0.00 in
06:07 57.1 °F 52.3 °F 30.01 in SW 0.7 mph 2.3 mph 84 % 0.00 in
06:12 57.0 °F 52.2 °F 30.00 in SW 0.5 mph 1.2 mph 84 % 0.00 in
06:17 57.0 °F 52.5 °F 30.01 in SW 1.4 mph 2.3 mph 85 % 0.00 in
06:22 56.9 °F 52.4 °F 30.00 in SSW 0.1 mph 2.0 mph 85 % 0.00 in
06:27 56.9 °F 52.4 °F 30.00 in SSW 0.2 mph 1.2 mph 85 % 0.00 in
06:32 56.8 °F 52.3 °F 30.00 in SSW 0.3 mph 1.2 mph 85 % 0.00 in
06:37 56.7 °F 52.2 °F 30.01 in SSW 1.0 mph 2.3 mph 85 % 0.00 in
06:42 56.6 °F 52.1 °F 30.01 in SSW 0.5 mph 3.0 mph 85 % 0.00 in
06:47 56.6 °F 52.5 °F 30.02 in SSW 0.5 mph 1.2 mph 86 % 0.00 in
06:52 56.5 °F 52.4 °F 30.02 in SSW 0.2 mph 1.2 mph 86 % 0.00 in
06:57 56.4 °F 52.3 °F 30.02 in SSE 1.7 mph 4.6 mph 86 % 0.00 in
07:03 56.4 °F 52.6 °F 30.02 in SSW 1.6 mph 3.5 mph 87 % 0.00 in
07:08 56.3 °F 52.5 °F 30.02 in SSW 1.8 mph 2.3 mph 87 % 0.00 in
07:13 56.3 °F 52.5 °F 30.02 in SW 1.1 mph 3.5 mph 87 % 0.00 in
07:18 56.3 °F 52.8 °F 30.02 in SW 2.3 mph 3.5 mph 88 % 0.00 in
07:23 56.3 °F 52.8 °F 30.02 in WSW 1.9 mph 3.5 mph 88 % 0.00 in
07:28 56.4 °F 52.9 °F 30.02 in Calm   1.2 mph 88 % 0.00 in
07:33 56.5 °F 53.3 °F 30.03 in SW 1.2 mph 2.3 mph 89 % 0.00 in
07:38 56.6 °F 53.4 °F 30.03 in SW 2.3 mph 3.5 mph 89 % 0.00 in
07:43 56.8 °F 53.6 °F 30.03 in SW 3.0 mph 4.6 mph 89 % 0.00 in
07:48 57.0 °F 53.8 °F 30.03 in WSW 0.7 mph 4.6 mph 89 % 0.00 in
07:53 57.2 °F 53.7 °F 30.03 in SW 0.5 mph 2.3 mph 88 % 0.00 in
07:59 57.5 °F 54.3 °F 30.03 in WSW 2.8 mph 6.0 mph 89 % 0.00 in
08:04 57.8 °F 54.3 °F 30.03 in WSW 2.4 mph 4.6 mph 88 % 0.00 in
08:09 58.2 °F 54.7 °F 30.03 in WNW 2.3 mph 5.0 mph 88 % 0.00 in
08:14 58.6 °F 54.7 °F 30.03 in WSW 2.3 mph 3.5 mph 87 % 0.00 in
08:19 59.0 °F 54.8 °F 30.03 in WSW 3.1 mph 4.6 mph 86 % 0.00 in
08:24 59.3 °F 54.8 °F 30.03 in SSW 4.6 mph 8.1 mph 85 % 0.00 in
08:29 59.7 °F 54.9 °F 30.03 in SSW 2.7 mph 5.0 mph 84 % 0.00 in
08:34 60.0 °F 54.8 °F 30.03 in SW 1.7 mph 3.5 mph 83 % 0.00 in
08:39 60.4 °F 54.9 °F 30.03 in SSW 3.2 mph 4.6 mph 82 % 0.00 in
08:44 60.7 °F 54.8 °F 30.03 in WSW 2.3 mph 4.6 mph 81 % 0.00 in
08:49 61.1 °F 55.2 °F 30.03 in SSW 2.9 mph 5.8 mph 81 % 0.00 in
08:54 61.4 °F 55.5 °F 30.03 in WSW 4.5 mph 6.9 mph 81 % 0.00 in
09:00 61.8 °F 55.6 °F 30.03 in WSW 4.0 mph 8.0 mph 80 % 0.00 in
09:05 62.2 °F 55.3 °F 30.03 in West 3.2 mph 9.0 mph 78 % 0.00 in
09:10 62.5 °F 55.5 °F 30.04 in West 2.1 mph 5.8 mph 78 % 0.00 in
09:15 62.8 °F 55.1 °F 30.04 in WSW 5.8 mph 11.5 mph 76 % 0.00 in
09:20 63.0 °F 55.3 °F 30.04 in SSW 3.6 mph 6.0 mph 76 % 0.00 in
09:25 63.2 °F 54.8 °F 30.04 in WSW 4.8 mph 5.8 mph 74 % 0.00 in
09:31 63.4 °F 55.3 °F 30.04 in West 5.0 mph 10.0 mph 75 % 0.00 in
09:36 63.6 °F 55.2 °F 30.05 in West 2.0 mph 9.0 mph 74 % 0.00 in
09:41 63.9 °F 55.4 °F 30.05 in West 1.0 mph 7.0 mph 74 % 0.00 in
09:46 64.3 °F 55.9 °F 30.05 in West 1.0 mph 9.0 mph 74 % 0.00 in
09:51 64.8 °F 56.0 °F 30.05 in West 3.0 mph 9.0 mph 73 % 0.00 in
09:56 65.3 °F 55.7 °F 30.05 in WSW 5.0 mph 8.0 mph 71 % 0.00 in
10:01 65.8 °F 55.7 °F 30.05 in SW 1.1 mph 11.5 mph 70 % 0.00 in
10:06 66.1 °F 55.2 °F 30.05 in WSW 3.1 mph 8.1 mph 68 % 0.00 in
10:11 66.2 °F 55.7 °F 30.04 in SW 2.9 mph 4.6 mph 69 % 0.00 in
10:16 66.3 °F 55.4 °F 30.04 in WNW 5.6 mph 10.4 mph 68 % 0.00 in
10:21 66.3 °F 55.0 °F 30.04 in WSW 3.0 mph 5.8 mph 67 % 0.00 in
10:26 66.3 °F 55.0 °F 30.04 in NW 5.0 mph 6.9 mph 67 % 0.00 in
10:31 66.4 °F 55.1 °F 30.04 in SSW 2.9 mph 5.8 mph 67 % 0.00 in
10:36 66.4 °F 55.9 °F 30.04 in WSW 5.3 mph 9.2 mph 69 % 0.00 in
10:41 66.5 °F 55.2 °F 30.04 in WSW 3.0 mph 8.1 mph 67 % 0.00 in
10:46 66.6 °F 55.7 °F 30.04 in West 1.6 mph 3.0 mph 68 % 0.00 in
10:51 66.8 °F 55.5 °F 30.04 in West 4.5 mph 8.1 mph 67 % 0.00 in
10:56 67.1 °F 55.4 °F 30.04 in SSW 3.4 mph 6.0 mph 66 % 0.00 in
10:59 67.2 °F 55.9 °F 30.04 in WSW 2.6 mph 3.5 mph 67 % 0.00 in
11:04 67.7 °F 56.3 °F 30.04 in WSW 3.4 mph 6.0 mph 67 % 0.00 in
11:09 68.4 °F 56.6 °F 30.04 in SSW 5.0 mph 6.9 mph 66 % 0.00 in
11:14 69.3 °F 56.6 °F 30.04 in West 5.1 mph 9.2 mph 64 % 0.00 in
11:19 70.1 °F 56.5 °F 30.04 in WSW 3.7 mph 9.2 mph 62 % 0.00 in
11:24 70.8 °F 56.7 °F 30.04 in WSW 4.1 mph 6.0 mph 61 % 0.00 in
11:29 71.7 °F 58.4 °F 30.04 in WNW 4.4 mph 8.0 mph 63 % 0.00 in
11:34 72.6 °F 59.3 °F 30.03 in WSW 1.6 mph 5.8 mph 63 % 0.00 in
11:39 73.4 °F 59.6 °F 30.03 in NW 2.1 mph 9.0 mph 62 % 0.00 in
11:44 74.0 °F 58.8 °F 30.04 in WNW 0.7 mph 4.0 mph 59 % 0.00 in
11:49 74.4 °F 56.7 °F 30.04 in WSW 5.1 mph 8.1 mph 54 % 0.00 in
11:54 74.7 °F 56.4 °F 30.03 in SW 4.6 mph 5.8 mph 53 % 0.00 in
11:59 75.1 °F 56.8 °F 30.04 in WSW 1.8 mph 4.6 mph 53 % 0.00 in
12:04 75.3 °F 56.5 °F 30.03 in WSW 2.6 mph 9.2 mph 52 % 0.00 in
12:09 75.6 °F 58.8 °F 30.03 in SW 2.4 mph 4.6 mph 56 % 0.00 in
12:14 75.9 °F 59.1 °F 30.04 in West 3.4 mph 7.0 mph 56 % 0.00 in
12:20 76.0 °F 57.6 °F 30.04 in WSW 2.5 mph 5.8 mph 53 % 0.00 in
12:25 76.3 °F 58.4 °F 30.03 in West 2.5 mph 8.1 mph 54 % 0.00 in
12:30 76.4 °F 56.9 °F 30.04 in West 1.1 mph 3.5 mph 51 % 0.00 in
12:35 76.6 °F 57.1 °F 30.04 in SW 2.7 mph 6.0 mph 51 % 0.00 in
12:40 76.7 °F 57.2 °F 30.04 in West 2.4 mph 5.0 mph 51 % 0.00 in
12:45 76.7 °F 55.5 °F 30.04 in SW 5.5 mph 10.4 mph 48 % 0.00 in
12:50 76.7 °F 56.7 °F 30.03 in SW 2.3 mph 5.8 mph 50 % 0.00 in
12:55 76.7 °F 56.1 °F 30.04 in NW 1.8 mph 10.4 mph 49 % 0.00 in
13:00 76.8 °F 56.2 °F 30.04 in SSW 2.6 mph 5.8 mph 49 % 0.00 in
13:05 76.7 °F 56.1 °F 30.04 in WNW 1.2 mph 8.1 mph 49 % 0.00 in
13:10 76.7 °F 57.2 °F 30.04 in WSW 5.4 mph 8.0 mph 51 % 0.00 in
13:15 76.6 °F 56.0 °F 30.03 in WSW 0.6 mph 3.5 mph 49 % 0.00 in
13:20 76.7 °F 56.7 °F 30.03 in SW 3.7 mph 5.8 mph 50 % 0.00 in
13:25 76.6 °F 55.4 °F 30.03 in SSW 3.2 mph 6.0 mph 48 % 0.00 in
13:30 76.4 °F 55.8 °F 30.03 in WSW 4.1 mph 6.9 mph 49 % 0.00 in
13:36 76.5 °F 56.5 °F 30.03 in SW 3.5 mph 8.1 mph 50 % 0.00 in
13:40 76.8 °F 58.9 °F 30.03 in West 2.0 mph 5.0 mph 54 % 0.00 in
13:46 77.0 °F 56.9 °F 30.03 in West 1.0 mph 12.0 mph 50 % 0.00 in
13:51 77.2 °F 57.1 °F 30.03 in West 5.0 mph 12.0 mph 50 % 0.00 in
13:56 77.2 °F 57.7 °F 30.04 in WNW 2.0 mph 9.0 mph 51 % 0.00 in
14:01 77.2 °F 56.0 °F 30.03 in WSW 2.6 mph 5.8 mph 48 % 0.00 in
14:06 77.3 °F 56.1 °F 30.03 in WNW 4.6 mph 9.2 mph 48 % 0.00 in
14:11 77.4 °F 57.3 °F 30.03 in NW 4.4 mph 8.1 mph 50 % 0.00 in
14:16 77.5 °F 58.5 °F 30.03 in WNW 1.2 mph 4.0 mph 52 % 0.00 in
14:21 77.7 °F 58.1 °F 30.03 in WSW 3.8 mph 5.8 mph 51 % 0.00 in
14:26 77.8 °F 57.7 °F 30.03 in WSW 2.7 mph 8.1 mph 50 % 0.00 in
14:28 77.8 °F 56.0 °F 30.03 in WSW 6.2 mph 11.5 mph 47 % 0.00 in
14:33 77.6 °F 55.2 °F 30.04 in SW 3.2 mph 9.2 mph 46 % 0.00 in
14:38 77.3 °F 56.6 °F 30.03 in NW 2.4 mph 6.9 mph 49 % 0.00 in
14:43 76.9 °F 57.9 °F 30.03 in WNW 2.3 mph 3.5 mph 52 % 0.00 in
14:48 76.4 °F 56.4 °F 30.03 in WNW 2.5 mph 5.0 mph 50 % 0.00 in
14:53 75.9 °F 54.8 °F 30.03 in WNW 2.5 mph 6.0 mph 48 % 0.00 in
14:58 75.5 °F 55.6 °F 30.03 in West 4.9 mph 6.9 mph 50 % 0.00 in
15:03 75.1 °F 55.2 °F 30.03 in NW 2.8 mph 6.9 mph 50 % 0.00 in
15:08 74.8 °F 56.0 °F 30.03 in NW 4.4 mph 7.0 mph 52 % 0.00 in
15:13 74.8 °F 58.5 °F 30.03 in WSW 1.4 mph 5.8 mph 57 % 0.00 in
15:18 74.7 °F 56.9 °F 30.03 in West 2.3 mph 5.8 mph 54 % 0.00 in
15:23 74.7 °F 56.4 °F 30.03 in WSW 3.4 mph 6.0 mph 53 % 0.00 in
15:28 74.6 °F 56.3 °F 30.03 in NW 2.3 mph 4.0 mph 53 % 0.00 in
15:33 74.5 °F 55.7 °F 30.03 in West 4.2 mph 11.5 mph 52 % 0.00 in
15:35 74.5 °F 56.2 °F 30.03 in WSW 3.3 mph 11.5 mph 53 % 0.00 in
15:40 74.6 °F 56.9 °F 30.03 in NE 4.0 mph 8.1 mph 54 % 0.00 in
15:45 74.8 °F 56.0 °F 30.04 in NW 3.3 mph 6.9 mph 52 % 0.00 in
15:50 74.9 °F 57.6 °F 30.03 in SW 5.2 mph 9.2 mph 55 % 0.00 in
15:55 75.1 °F 56.8 °F 30.04 in WSW 5.3 mph 8.0 mph 53 % 0.00 in
16:00 75.3 °F 56.5 °F 30.04 in West 1.1 mph 4.6 mph 52 % 0.00 in
16:05 75.4 °F 56.0 °F 30.04 in NW 1.5 mph 3.5 mph 51 % 0.00 in
16:10 75.5 °F 56.1 °F 30.04 in WNW 3.3 mph 9.2 mph 51 % 0.00 in
16:15 75.6 °F 55.6 °F 30.04 in NW 2.8 mph 5.8 mph 50 % 0.00 in
16:20 75.6 °F 56.7 °F 30.03 in SW 2.7 mph 6.0 mph 52 % 0.00 in
16:25 75.6 °F 55.6 °F 30.04 in WSW 4.6 mph 8.1 mph 50 % 0.00 in
16:30 75.7 °F 55.7 °F 30.03 in WSW 3.6 mph 4.6 mph 50 % 0.00 in
16:35 75.7 °F 56.8 °F 30.03 in SW 1.7 mph 3.5 mph 52 % 0.00 in
16:40 75.7 °F 56.3 °F 30.04 in South 2.6 mph 4.0 mph 51 % 0.00 in
16:45 75.7 °F 55.7 °F 30.04 in SW 3.0 mph 8.0 mph 50 % 0.00 in
16:50 75.6 °F 55.0 °F 30.04 in WSW 3.0 mph 8.0 mph 49 % 0.00 in
16:55 75.4 °F 54.3 °F 30.04 in West 3.0 mph 6.0 mph 48 % 0.00 in
17:01 75.2 °F 53.6 °F 30.03 in WSW 5.1 mph 5.8 mph 47 % 0.00 in
17:06 74.9 °F 56.1 °F 30.03 in NW 1.1 mph 2.3 mph 52 % 0.00 in
17:11 74.7 °F 55.4 °F 30.03 in SW 2.0 mph 8.0 mph 51 % 0.00 in
17:16 74.5 °F 53.5 °F 30.03 in West 3.8 mph 6.0 mph 48 % 0.00 in
17:21 74.2 °F 53.8 °F 30.03 in West 4.6 mph 10.4 mph 49 % 0.00 in
17:26 73.9 °F 53.0 °F 30.03 in WNW 5.0 mph 9.2 mph 48 % 0.00 in
17:31 73.5 °F 52.6 °F 30.04 in West 3.0 mph 5.8 mph 48 % 0.00 in
17:36 73.1 °F 52.2 °F 30.04 in SW 4.2 mph 6.9 mph 48 % 0.00 in
17:41 72.7 °F 52.4 °F 30.04 in WNW 4.5 mph 6.9 mph 49 % 0.00 in
17:46 72.3 °F 53.2 °F 30.04 in WSW 2.3 mph 8.1 mph 51 % 0.00 in
17:51 71.9 °F 52.8 °F 30.05 in SSW 3.0 mph 5.8 mph 51 % 0.00 in
17:56 71.6 °F 53.0 °F 30.04 in West 1.8 mph 6.9 mph 52 % 0.00 in
18:01 71.3 °F 53.8 °F 30.04 in WNW 1.7 mph 5.8 mph 54 % 0.00 in
18:06 71.0 °F 53.5 °F 30.05 in WSW 4.6 mph 10.0 mph 54 % 0.00 in
18:09 70.8 °F 53.3 °F 30.05 in WNW 3.7 mph 6.0 mph 54 % 0.00 in
18:14 70.4 °F 52.4 °F 30.05 in WNW 1.3 mph 4.0 mph 53 % 0.00 in
18:19 70.2 °F 53.3 °F 30.05 in SSW 1.3 mph 3.5 mph 55 % 0.00 in
18:24 70.0 °F 53.1 °F 30.05 in WSW 1.9 mph 6.0 mph 55 % 0.00 in
18:29 69.7 °F 52.8 °F 30.05 in West 3.1 mph 5.8 mph 55 % 0.00 in
18:34 69.4 °F 52.5 °F 30.05 in Calm   2.3 mph 55 % 0.00 in
18:39 69.2 °F 52.8 °F 30.05 in WNW 2.0 mph 5.8 mph 56 % 0.00 in
18:44 69.0 °F 53.1 °F 30.05 in SW 0.6 mph 6.9 mph 57 % 0.00 in
18:49 68.7 °F 52.8 °F 30.05 in NW 4.3 mph 5.8 mph 57 % 0.00 in
18:53 68.6 °F 52.8 °F 30.05 in WSW 3.2 mph 3.5 mph 57 % 0.00 in
18:58 68.4 °F 52.6 °F 30.05 in West 2.3 mph 5.8 mph 57 % 0.00 in
19:03 68.2 °F 52.4 °F 30.05 in West 2.0 mph 10.4 mph 57 % 0.00 in
19:08 68.0 °F 52.2 °F 30.05 in WSW 1.3 mph 4.6 mph 57 % 0.00 in
19:13 67.9 °F 53.0 °F 30.06 in WSW 1.9 mph 11.0 mph 59 % 0.00 in
19:18 67.7 °F 52.9 °F 30.06 in West 0.7 mph 3.5 mph 59 % 0.00 in
19:23 67.5 °F 53.1 °F 30.06 in SW 1.8 mph 4.0 mph 60 % 0.00 in
19:28 67.3 °F 52.9 °F 30.06 in WNW 3.2 mph 5.8 mph 60 % 0.00 in
19:34 67.1 °F 52.7 °F 30.06 in WNW 0.6 mph 3.5 mph 60 % 0.00 in
19:39 67.0 °F 53.1 °F 30.06 in West 2.9 mph 2.9 mph 61 % 0.00 in
19:44 66.9 °F 53.0 °F 30.06 in NW 0.9 mph 5.8 mph 61 % 0.00 in
19:49 66.8 °F 53.4 °F 30.07 in NW 1.3 mph 5.8 mph 62 % 0.00 in
19:51 66.8 °F 53.8 °F 30.06 in WNW 2.8 mph 5.8 mph 63 % 0.00 in
19:56 66.7 °F 53.3 °F 30.07 in WNW 2.3 mph 4.6 mph 62 % 0.00 in
20:01 66.6 °F 53.6 °F 30.07 in WNW 4.9 mph 6.0 mph 63 % 0.00 in
20:06 66.5 °F 53.1 °F 30.07 in West 3.8 mph 8.0 mph 62 % 0.00 in
20:08 66.5 °F 53.5 °F 30.07 in WNW 1.2 mph 8.1 mph 63 % 0.00 in
20:13 66.4 °F 53.4 °F 30.08 in West 3.2 mph 5.8 mph 63 % 0.00 in
20:18 66.4 °F 53.4 °F 30.08 in NNW 4.2 mph 8.1 mph 63 % 0.00 in
20:23 66.3 °F 53.8 °F 30.08 in SW 2.1 mph 5.0 mph 64 % 0.00 in
20:28 66.3 °F 53.8 °F 30.08 in West 1.7 mph 4.6 mph 64 % 0.00 in
20:33 66.2 °F 53.7 °F 30.09 in WNW 0.8 mph 4.0 mph 64 % 0.00 in
20:38 66.1 °F 53.6 °F 30.09 in WNW 0.7 mph 4.0 mph 64 % 0.00 in
20:43 66.0 °F 53.9 °F 30.09 in WNW 3.3 mph 5.0 mph 65 % 0.00 in
20:48 65.9 °F 53.8 °F 30.09 in NW 4.2 mph 8.1 mph 65 % 0.00 in
20:53 65.8 °F 53.7 °F 30.09 in WNW 1.6 mph 8.0 mph 65 % 0.00 in
20:58 65.8 °F 53.7 °F 30.09 in West 1.8 mph 9.2 mph 65 % 0.00 in
21:03 65.7 °F 53.6 °F 30.09 in WNW 5.2 mph 10.4 mph 65 % 0.00 in
21:08 65.7 °F 53.6 °F 30.09 in NW 2.6 mph 6.9 mph 65 % 0.00 in
21:13 65.6 °F 53.9 °F 30.09 in WNW 1.7 mph 8.1 mph 66 % 0.00 in
21:18 65.6 °F 53.9 °F 30.09 in West 6.7 mph 9.2 mph 66 % 0.00 in
21:23 65.5 °F 54.2 °F 30.09 in West 6.4 mph 9.2 mph 67 % 0.00 in
21:28 65.5 °F 54.2 °F 30.09 in West 3.5 mph 8.1 mph 67 % 0.00 in
21:33 65.4 °F 54.6 °F 30.09 in West 5.0 mph 8.0 mph 68 % 0.00 in
21:38 65.3 °F 54.5 °F 30.09 in WNW 4.8 mph 8.1 mph 68 % 0.00 in
21:43 65.2 °F 54.8 °F 30.09 in WNW 2.7 mph 6.9 mph 69 % 0.00 in
21:48 65.1 °F 54.7 °F 30.10 in NW 0.8 mph 4.6 mph 69 % 0.00 in
21:54 65.0 °F 55.0 °F 30.10 in NE 0.5 mph 5.8 mph 70 % 0.00 in
21:59 64.9 °F 54.5 °F 30.10 in WNW 3.2 mph 8.1 mph 69 % 0.00 in
22:04 64.7 °F 54.3 °F 30.11 in WNW 3.4 mph 9.2 mph 69 % 0.00 in
22:09 64.5 °F 54.1 °F 30.10 in WNW 1.9 mph 5.8 mph 69 % 0.00 in
22:14 64.5 °F 54.5 °F 30.11 in WNW 2.4 mph 5.8 mph 70 % 0.00 in
22:19 64.4 °F 54.4 °F 30.11 in West 2.5 mph 7.0 mph 70 % 0.00 in
22:24 64.2 °F 54.2 °F 30.11 in West 4.6 mph 6.9 mph 70 % 0.00 in
22:29 64.1 °F 54.5 °F 30.11 in North 1.9 mph 5.8 mph 71 % 0.00 in
22:34 64.0 °F 54.8 °F 30.11 in NNW 2.0 mph 5.8 mph 72 % 0.00 in
22:39 63.9 °F 54.7 °F 30.11 in NNW 0.6 mph 3.0 mph 72 % 0.00 in
22:44 63.7 °F 54.9 °F 30.11 in NNE 1.4 mph 8.1 mph 73 % 0.00 in
22:49 63.5 °F 54.7 °F 30.11 in North 0.3 mph 1.2 mph 73 % 0.00 in
22:54 63.4 °F 54.6 °F 30.11 in NW 1.0 mph 2.3 mph 73 % 0.00 in
22:59 63.3 °F 54.9 °F 30.11 in Calm   1.2 mph 74 % 0.00 in
23:04 63.1 °F 54.7 °F 30.11 in WNW 2.3 mph 3.5 mph 74 % 0.00 in
23:10 63.0 °F 54.9 °F 30.11 in NW 2.1 mph 3.5 mph 75 % 0.00 in
23:15 62.8 °F 54.8 °F 30.11 in NW 0.8 mph 3.5 mph 75 % 0.00 in
23:20 62.6 °F 54.9 °F 30.11 in NW 0.6 mph 2.0 mph 76 % 0.00 in
23:21 62.6 °F 54.9 °F 30.11 in NW 0.9 mph 2.0 mph 76 % 0.00 in
23:23 62.5 °F 54.8 °F 30.11 in Calm   2.3 mph 76 % 0.00 in
23:26 62.4 °F 54.7 °F 30.11 in North 0.7 mph 3.5 mph 76 % 0.00 in
23:31 62.2 °F 54.5 °F 30.11 in NW 0.6 mph 1.0 mph 76 % 0.00 in
23:36 62.1 °F 54.4 °F 30.11 in NNW 1.8 mph 3.5 mph 76 % 0.00 in
23:41 61.8 °F 53.8 °F 30.11 in North 1.2 mph 3.5 mph 75 % 0.00 in
23:46 61.6 °F 53.6 °F 30.11 in NNE 3.0 mph 4.0 mph 75 % 0.00 in
23:52 61.5 °F 53.5 °F 30.12 in Calm   3.5 mph 75 % 0.00 in
23:56 61.4 °F 53.8 °F 30.11 in North 1.5 mph 3.0 mph 76 % 0.00 in
Crab Meadow Weather
Compliments of Weather Underground - 3 mb

Script developed by  Jim McMurry - jmcmurry@mwt.net Adapted for the template by  Wim van der Kuil - Leuven-Template.eu

Cloud Base: The cloud base is the distance from the sea level to the base of the clouds. It is estimated using the current temperature and humidity to indicate an altitude where the air could be cold enough for clouds to form. There may or may not be clouds at that altitude (or at any altitude)